Location: Franzen
(48.6167°N, 15.3833°E)
Time: 13:59:31
(UTC+00:00)

Transit 2A Rocket - Pass Details

Date: 01 August 2021
Orbit: 586 x 917 km, 66.7° (Epoch: 27 September)

Event Time Altitude Azimuth Distance (km) Brightness Sun altitude
Rises 20:46:32 0° 326° (NW) 3,221 10.1 -16.8°
Reaches altitude 10° 20:48:54 10° 331° (NNW) 2,343 8.8 -17.0°
Maximum altitude 20:54:14 56° 49° (NE) 989 5.6 -17.5°
Enters shadow 20:57:30 25° 118° (ESE) 1,658 6.2 -17.8°
